Kapolei, HI

12:53 PM HST on August 28, 2016 (GMT -1000)
Kalaeloa (John Rodgers Field)

Weather History for PHJR - May, 2013

Change the Weather History Date:

Monday, May 13, 2013

  Actual Average (PHNL) Record (PHNL)
Temperature  
Mean Temperature 76 °F 77 °F  
Max Temperature 81 °F 84 °F 89 °F (2005)
Min Temperature 71 °F 71 °F 64 °F (1952)
Degree Days  
Heating Degree Days 0 0  
Month to date heating degree days 0  
Since 1 July heating degree days 0  
Cooling Degree Days 11 12  
Month to date cooling degree days 156  
Year to date cooling degree days 1263  
Growing Degree Days 26 (Base 50)    
Moisture  
Dew Point 67 °F    
Average Humidity 78    
Maximum Humidity 93    
Minimum Humidity 62    
Precipitation  
Precipitation 0.01 in 0.02 in 1.34 in (1960)
Month to date precipitation 0.30  
Year to date precipitation 7.25  
Snow  
Snow 0.00 in - - ()
Month to date snowfall  
Since 1 July snowfall  
Snow Depth -    
Sea Level Pressure  
Sea Level Pressure 30.08 in    
Wind  
Wind Speed 5 mph (ENE)    
Max Wind Speed 13 mph    
Max Gust Speed 23 mph    
Visibility 10 miles    
Events Rain    
T = Trace of Precipitation, MM = Missing Value Source: NWS Daily Summary

Daily Weather History Graph

Daily Weather History Graph

Search for Another Location

Airport or City:

Trip Planner

Search our weather history database for the weather conditions in past years. The results will help you decide how hot, cold, wet, or windy it might be!

Date:

Astronomy

May. 13, 2013 Rise Set
Actual Time 5:54 AM HST 7:02 PM HST
Civil Twilight 5:30 AM HST 7:26 PM HST
Nautical Twilight 5:02 AM HST 7:54 PM HST
Astronomical Twilight 4:33 AM HST 8:23 PM HST
Moon 8:52 AM HST (5/13) 10:19 PM HST (5/13)
Length of Visible Light 13h 55m
Length of Day
13h 07m
Waxing Crescent, 13% of the Moon is Illuminated
May 13
Waxing Crescent
May 17
First Quarter
May 24
Full
May 31
Last Quarter
Jun 8
New

Hourly Weather History & Observations

Time (HST) Temp. Heat Index Dew Point Humidity Pressure Visibility Wind Dir Wind Speed Gust Speed Precip Events Conditions
12:53 AM 73.0 °F - 66.9 °F 81% 30.09 in 10.0 mi Variable 3.5 mph - N/A   Mostly Cloudy
1:05 AM 71.6 °F - 66.2 °F 83% 30.07 in 10.0 mi ENE 3.5 mph - N/A   Scattered Clouds
1:53 AM 71.1 °F - 66.9 °F 87% 30.08 in 10.0 mi ENE 3.5 mph - N/A   Scattered Clouds
2:12 AM 71.6 °F - 66.2 °F 83% 30.06 in 10.0 mi Calm Calm - N/A   Overcast
2:44 AM 71.6 °F - 66.2 °F 83% 30.05 in 10.0 mi Variable 4.6 mph - N/A   Mostly Cloudy
2:51 AM 71.6 °F - 66.2 °F 83% 30.05 in 10.0 mi Variable 3.5 mph - N/A   Mostly Cloudy
2:53 AM 72.0 °F - 66.9 °F 84% 30.06 in 10.0 mi Variable 4.6 mph - N/A   Mostly Cloudy
3:11 AM 71.6 °F - 68.0 °F 88% 30.04 in 10.0 mi Variable 3.5 mph - N/A   Overcast
3:53 AM 71.1 °F - 68.0 °F 90% 30.06 in 10.0 mi Calm Calm - N/A   Overcast
4:53 AM 71.1 °F - 69.1 °F 93% 30.07 in 10.0 mi Variable 3.5 mph - 0.01 in Rain Light Rain
5:53 AM - - - N/A% 30.08 in 10.0 mi Variable 3.5 mph - 0.00 in   Overcast
6:53 AM - - - N/A% 30.09 in 10.0 mi Variable 4.6 mph - N/A   Overcast
7:53 AM 73.9 °F - 70.0 °F 87% 30.10 in 10.0 mi Calm Calm - N/A   Overcast
8:29 AM 75.2 °F - 69.8 °F 83% 30.08 in 10.0 mi ENE 6.9 mph - N/A   Mostly Cloudy
8:53 AM 75.9 °F - 68.0 °F 76% 30.11 in 10.0 mi ENE 10.4 mph 19.6 mph N/A   Overcast
9:24 AM 78.8 °F - 68.0 °F 69% 30.09 in 10.0 mi East 12.7 mph 21.9 mph N/A   Mostly Cloudy
10:53 AM 80.1 °F 82.3 °F 66.9 °F 64% 30.11 in 10.0 mi East 8.1 mph 23.0 mph N/A   Overcast
11:53 AM 79.0 °F - 66.9 °F 66% 30.11 in 10.0 mi East 8.1 mph 20.7 mph N/A   Overcast
12:53 PM 80.1 °F 82.3 °F 66.9 °F 64% 30.09 in 10.0 mi East 8.1 mph - N/A   Overcast
1:53 PM 78.1 °F - 66.0 °F 66% 30.08 in 10.0 mi East 10.4 mph 19.6 mph N/A   Overcast
2:53 PM 81.0 °F 83.3 °F 66.9 °F 62% 30.06 in 10.0 mi ENE 10.4 mph 20.7 mph N/A   Mostly Cloudy
3:53 PM 78.1 °F - 66.0 °F 66% 30.06 in 10.0 mi East 6.9 mph 17.3 mph N/A   Overcast
4:53 PM 77.0 °F - 66.9 °F 71% 30.05 in 10.0 mi ENE 9.2 mph - N/A   Overcast
5:53 PM 75.9 °F - 66.9 °F 74% 30.06 in 10.0 mi Variable 5.8 mph - N/A   Mostly Cloudy
6:53 PM 75.0 °F - 66.9 °F 76% 30.06 in 10.0 mi Variable 6.9 mph - N/A   Clear
7:08 PM 73.4 °F - 66.2 °F 78% 30.05 in 10.0 mi ENE 8.1 mph - N/A   Partly Cloudy
7:53 PM 73.0 °F - 66.9 °F 81% 30.08 in 10.0 mi ENE 4.6 mph - N/A   Clear
8:53 PM 73.0 °F - 66.0 °F 79% 30.10 in 10.0 mi ENE 4.6 mph - N/A   Scattered Clouds
9:53 PM 72.0 °F - 66.9 °F 84% 30.11 in 10.0 mi Variable 4.6 mph - N/A   Clear
10:53 PM 73.0 °F - 66.9 °F 81% 30.12 in 10.0 mi ENE 3.5 mph - N/A   Mostly Cloudy
11:53 PM 72.0 °F - 66.9 °F 84% 30.11 in 10.0 mi ENE 4.6 mph - N/A   Clear